Time,TemperatureF,DewpointF,PressureIn,WindDirection,WindDirectionDegrees,WindSpeedMPH,WindSpeedGustMPH,Humidity,HourlyPrecipIn,Conditions,Clouds,dailyrainin,SoftwareType,DateUTC
2013-04-20 00:02:00,34.0,29.0,29.80,WNW,285,5.0,11.0,81,0.00,,,0.03,,2013-04-20 05:02:00,
2013-04-20 00:12:00,34.0,29.0,29.80,WNW,285,5.0,11.0,81,0.00,,,0.03,,2013-04-20 05:12:00,
2013-04-20 00:22:00,33.0,28.0,29.81,WNW,285,6.0,9.0,83,0.00,,,0.03,,2013-04-20 05:22:00,
2013-04-20 00:32:00,33.0,29.0,29.82,WNW,300,6.0,9.0,84,0.00,,,0.03,,2013-04-20 05:32:00,
2013-04-20 00:42:00,33.0,29.0,29.82,WNW,300,6.0,9.0,84,0.00,,,0.03,,2013-04-20 05:42:00,
2013-04-20 00:52:00,33.0,27.0,29.84,WNW,288,4.0,13.0,79,0.00,,,0.03,,2013-04-20 05:52:00,
2013-04-20 01:02:00,33.0,27.0,29.84,WNW,290,3.0,11.0,79,0.00,,,0.03,,2013-04-20 06:02:00,
2013-04-20 01:12:00,33.0,27.0,29.84,WNW,290,3.0,11.0,79,0.00,,,0.03,,2013-04-20 06:12:00,
2013-04-20 01:21:00,33.0,27.0,29.85,NW,310,5.0,12.0,77,0.00,,,0.03,,2013-04-20 06:21:00,
2013-04-20 01:32:00,33.0,27.0,29.86,WNW,298,8.0,12.0,77,0.00,,,0.03,,2013-04-20 06:32:00,
2013-04-20 01:42:00,33.0,27.0,29.86,WNW,298,8.0,12.0,77,0.00,,,0.03,,2013-04-20 06:42:00,
2013-04-20 01:52:00,33.0,25.0,29.86,NW,304,5.0,12.0,72,0.00,,,0.03,,2013-04-20 06:52:00,
2013-04-20 02:01:00,33.0,25.0,29.87,NW,308,6.0,13.0,71,0.00,,,0.03,,2013-04-20 07:01:00,
2013-04-20 02:11:00,33.0,25.0,29.87,NW,308,6.0,13.0,71,0.00,,,0.03,,2013-04-20 07:11:00,
2013-04-20 02:21:00,33.0,24.0,29.88,WNW,285,7.0,11.0,69,0.00,,,0.03,,2013-04-20 07:21:00,
2013-04-20 02:32:00,33.0,24.0,29.88,WNW,288,4.0,9.0,70,0.00,,,0.03,,2013-04-20 07:32:00,
2013-04-20 02:42:00,32.0,24.0,29.89,WNW,290,4.0,9.0,71,0.00,,,0.03,,2013-04-20 07:42:00,
2013-04-20 02:52:00,32.0,24.0,29.89,WNW,290,4.0,9.0,71,0.00,,,0.03,,2013-04-20 07:52:00,
2013-04-20 03:01:00,32.0,24.0,29.89,West,276,5.0,8.0,72,0.00,,,0.03,,2013-04-20 08:01:00,
2013-04-20 03:11:00,32.0,24.0,29.89,West,276,5.0,8.0,72,0.00,,,0.03,,2013-04-20 08:11:00,
2013-04-20 03:21:00,32.0,25.0,29.90,WNW,286,5.0,8.0,74,0.00,,,0.03,,2013-04-20 08:21:00,
2013-04-20 03:31:00,32.0,25.0,29.90,WNW,298,4.0,9.0,74,0.00,,,0.03,,2013-04-20 08:31:00,
2013-04-20 03:42:00,32.0,25.0,29.90,WNW,298,4.0,9.0,74,0.00,,,0.03,,2013-04-20 08:42:00,
2013-04-20 03:52:00,32.0,24.0,29.91,NW,304,6.0,18.0,71,0.00,,,0.03,,2013-04-20 08:52:00,
2013-04-20 04:01:00,31.0,22.0,29.92,WNW,299,4.0,13.0,70,0.00,,,0.03,,2013-04-20 09:01:00,
2013-04-20 04:12:00,31.0,22.0,29.92,WNW,299,4.0,13.0,70,0.00,,,0.03,,2013-04-20 09:12:00,
2013-04-20 04:21:00,31.0,22.0,29.93,West,273,5.0,13.0,70,0.00,,,0.03,,2013-04-20 09:21:00,
2013-04-20 04:33:00,31.0,22.0,29.93,NW,307,7.0,12.0,70,0.00,,,0.03,,2013-04-20 09:33:00,
2013-04-20 04:43:00,31.0,22.0,29.95,West,276,5.0,9.0,68,0.00,,,0.03,,2013-04-20 09:43:00,
2013-04-20 04:53:00,31.0,22.0,29.95,West,276,5.0,9.0,68,0.00,,,0.03,,2013-04-20 09:53:00,
2013-04-20 05:02:00,30.0,20.0,29.96,WNW,289,4.0,12.0,66,0.00,,,0.03,,2013-04-20 10:02:00,
2013-04-20 05:12:00,30.0,20.0,29.96,WNW,289,4.0,12.0,66,0.00,,,0.03,,2013-04-20 10:12:00,
2013-04-20 05:23:00,30.0,20.0,29.96,WNW,295,4.0,11.0,65,0.00,,,0.03,,2013-04-20 10:23:00,
2013-04-20 05:33:00,30.0,20.0,29.97,NW,304,3.0,8.0,66,0.00,,,0.03,,2013-04-20 10:33:00,
2013-04-20 05:42:00,30.0,21.0,29.98,NNW,331,3.0,5.0,68,0.00,,,0.03,,2013-04-20 10:42:00,
2013-04-20 05:53:00,30.0,21.0,29.98,NNW,331,3.0,5.0,68,0.00,,,0.03,,2013-04-20 10:53:00,
2013-04-20 06:02:00,29.0,20.0,29.99,WNW,288,4.0,6.0,69,0.00,,,0.03,,2013-04-20 11:02:00,
2013-04-20 06:12:00,29.0,20.0,30.00,WNW,291,1.0,7.0,70,0.00,,,0.03,,2013-04-20 11:12:00,
2013-04-20 06:23:00,29.0,20.0,30.00,WNW,291,1.0,7.0,70,0.00,,,0.03,,2013-04-20 11:23:00,
2013-04-20 06:32:00,29.0,21.0,30.01,WNW,300,3.0,7.0,72,0.00,,,0.03,,2013-04-20 11:32:00,
2013-04-20 06:42:00,29.0,21.0,30.01,WNW,300,3.0,7.0,72,0.00,,,0.03,,2013-04-20 11:42:00,
2013-04-20 06:53:00,29.0,21.0,30.02,NNW,340,2.0,6.0,73,0.00,,,0.03,,2013-04-20 11:53:00,
2013-04-20 07:02:00,30.0,22.0,30.02,WNW,285,2.0,6.0,72,0.00,,,0.03,,2013-04-20 12:02:00,
2013-04-20 07:11:00,30.0,22.0,30.02,WNW,285,2.0,6.0,72,0.00,,,0.03,,2013-04-20 12:11:00,
2013-04-20 07:22:00,31.0,22.0,30.03,NW,310,2.0,14.0,68,0.00,,,0.03,,2013-04-20 12:22:00,
2013-04-20 07:32:00,31.0,21.0,30.04,WNW,295,2.0,7.0,67,0.00,,,0.03,,2013-04-20 12:32:00,
2013-04-20 07:42:00,31.0,21.0,30.04,WNW,295,2.0,7.0,67,0.00,,,0.03,,2013-04-20 12:42:00,
2013-04-20 07:52:00,32.0,22.0,30.06,NW,319,4.0,11.0,66,0.00,,,0.03,,2013-04-20 12:52:00,
2013-04-20 08:02:00,32.0,22.0,30.06,NW,306,6.0,11.0,65,0.00,,,0.03,,2013-04-20 13:02:00,
2013-04-20 08:11:00,33.0,23.0,30.07,NW,314,4.0,8.0,66,0.00,,,0.03,,2013-04-20 13:11:00,
2013-04-20 08:21:00,33.0,23.0,30.07,NW,314,4.0,8.0,66,0.00,,,0.03,,2013-04-20 13:21:00,
2013-04-20 08:31:00,33.0,23.0,30.08,WNW,294,6.0,12.0,66,0.00,,,0.03,,2013-04-20 13:31:00,
2013-04-20 08:42:00,34.0,23.0,30.09,WNW,283,3.0,8.0,65,0.00,,,0.03,,2013-04-20 13:42:00,
2013-04-20 08:52:00,34.0,23.0,30.09,WNW,283,3.0,8.0,65,0.00,,,0.03,,2013-04-20 13:52:00,
2013-04-20 09:02:00,35.0,24.0,30.09,West,261,4.0,9.0,64,0.00,,,0.02,,2013-04-20 14:02:00,
2013-04-20 09:11:00,35.0,24.0,30.10,West,271,5.0,11.0,65,0.00,,,0.02,,2013-04-20 14:11:00,
2013-04-20 09:21:00,35.0,24.0,30.10,West,271,5.0,11.0,65,0.00,,,0.02,,2013-04-20 14:21:00,
2013-04-20 09:31:00,36.0,25.0,30.10,WNW,299,5.0,12.0,63,0.00,,,0.02,,2013-04-20 14:31:00,
2013-04-20 09:42:00,36.0,25.0,30.10,WNW,299,5.0,12.0,63,0.00,,,0.02,,2013-04-20 14:42:00,
2013-04-20 09:52:00,35.0,23.0,30.10,West,277,8.0,13.0,60,0.00,,,0.02,,2013-04-20 14:52:00,
2013-04-20 10:01:00,36.0,23.0,30.11,NW,304,6.0,12.0,60,0.00,,,0.02,,2013-04-20 15:01:00,
2013-04-20 10:11:00,36.0,23.0,30.11,NW,304,6.0,12.0,60,0.00,,,0.02,,2013-04-20 15:11:00,
2013-04-20 10:21:00,37.0,23.0,30.12,West,278,6.0,12.0,57,0.00,,,0.02,,2013-04-20 15:21:00,
2013-04-20 10:33:00,38.0,24.0,30.13,West,265,5.0,12.0,57,0.00,,,0.02,,2013-04-20 15:33:00,
2013-04-20 10:43:00,38.0,24.0,30.14,WNW,284,5.0,12.0,57,0.00,,,0.02,,2013-04-20 15:43:00,
2013-04-20 10:53:00,38.0,24.0,30.14,WNW,284,5.0,12.0,57,0.00,,,0.02,,2013-04-20 15:53:00,
2013-04-20 11:03:00,39.0,19.0,30.14,WNW,295,8.0,14.0,44,0.00,,,0.02,,2013-04-20 16:03:00,
2013-04-20 11:12:00,39.0,21.0,30.15,WNW,286,6.0,13.0,49,0.00,,,0.02,,2013-04-20 16:12:00,
2013-04-20 11:23:00,39.0,21.0,30.15,WNW,286,6.0,13.0,49,0.00,,,0.02,,2013-04-20 16:23:00,
2013-04-20 11:32:00,40.0,21.0,30.15,NW,310,5.0,13.0,47,0.00,,,0.02,,2013-04-20 16:32:00,
2013-04-20 11:42:00,40.0,20.0,30.16,NNW,327,2.0,13.0,45,0.00,,,0.02,,2013-04-20 16:42:00,
2013-04-20 11:53:00,40.0,20.0,30.16,NNW,327,2.0,13.0,45,0.00,,,0.02,,2013-04-20 16:53:00,
2013-04-20 12:02:00,40.0,21.0,30.16,NNW,331,5.0,15.0,46,0.00,,,0.01,,2013-04-20 17:02:00,
2013-04-20 12:12:00,40.0,20.0,30.16,NNW,329,6.0,14.0,45,0.00,,,0.01,,2013-04-20 17:12:00,
2013-04-20 12:23:00,40.0,20.0,30.16,NNW,329,6.0,14.0,45,0.00,,,0.01,,2013-04-20 17:23:00,
2013-04-20 12:33:00,40.0,19.0,30.17,West,281,4.0,12.0,42,0.00,,,0.01,,2013-04-20 17:33:00,
2013-04-20 12:42:00,40.0,19.0,30.17,West,281,4.0,12.0,42,0.00,,,0.01,,2013-04-20 17:42:00,
2013-04-20 12:52:00,40.0,20.0,30.17,WNW,285,5.0,14.0,44,0.00,,,0.01,,2013-04-20 17:52:00,
2013-04-20 13:02:00,41.0,22.0,30.18,West,269,8.0,15.0,47,0.00,,,0.01,,2013-04-20 18:02:00,
2013-04-20 13:12:00,41.0,20.0,30.18,WNW,303,6.0,13.0,42,0.00,,,0.01,,2013-04-20 18:12:00,
2013-04-20 13:22:00,41.0,20.0,30.18,WNW,303,6.0,13.0,42,0.00,,,0.01,,2013-04-20 18:22:00,
2013-04-20 13:32:00,42.0,22.0,30.18,West,277,5.0,11.0,45,0.00,,,0.01,,2013-04-20 18:32:00,
2013-04-20 13:42:00,42.0,22.0,30.18,West,277,5.0,11.0,45,0.00,,,0.01,,2013-04-20 18:42:00,
2013-04-20 13:52:00,42.0,19.0,30.19,WNW,288,8.0,15.0,39,0.00,,,0.01,,2013-04-20 18:52:00,
2013-04-20 14:01:00,42.0,21.0,30.19,West,268,6.0,14.0,43,0.00,,,0.00,,2013-04-20 19:01:00,
2013-04-20 14:11:00,43.0,23.0,30.19,West,259,6.0,14.0,44,0.00,,,0.00,,2013-04-20 19:11:00,
2013-04-20 14:21:00,43.0,23.0,30.19,West,259,6.0,14.0,44,0.00,,,0.00,,2013-04-20 19:21:00,
2013-04-20 14:32:00,43.0,23.0,30.19,NW,316,7.0,15.0,44,0.00,,,0.00,,2013-04-20 19:32:00,
2013-04-20 14:42:00,44.0,22.0,30.19,West,277,5.0,9.0,41,0.00,,,0.00,,2013-04-20 19:42:00,
2013-04-20 14:52:00,44.0,22.0,30.19,West,277,5.0,9.0,41,0.00,,,0.00,,2013-04-20 19:52:00,
2013-04-20 15:02:00,44.0,21.0,30.20,WNW,291,7.0,12.0,39,0.00,,,0.00,,2013-04-20 20:02:00,
2013-04-20 15:12:00,44.0,22.0,30.19,WNW,291,6.0,14.0,41,0.00,,,0.00,,2013-04-20 20:12:00,
2013-04-20 15:21:00,44.0,22.0,30.19,WNW,291,6.0,14.0,41,0.00,,,0.00,,2013-04-20 20:21:00,
2013-04-20 15:32:00,44.0,21.0,30.21,NW,325,1.0,12.0,39,0.00,,,0.00,,2013-04-20 20:32:00,
2013-04-20 15:42:00,44.0,21.0,30.21,NW,325,1.0,12.0,39,0.00,,,0.00,,2013-04-20 20:42:00,
2013-04-20 15:52:00,44.0,22.0,30.21,WNW,294,5.0,11.0,41,0.00,,,0.00,,2013-04-20 20:52:00,
2013-04-20 16:01:00,45.0,25.0,30.21,West,279,7.0,11.0,45,0.00,,,0.00,,2013-04-20 21:01:00,
2013-04-20 16:12:00,44.0,21.0,30.21,NW,306,1.0,10.0,40,0.00,,,0.00,,2013-04-20 21:12:00,
2013-04-20 16:21:00,44.0,21.0,30.21,NW,306,1.0,10.0,40,0.00,,,0.00,,2013-04-20 21:21:00,
2013-04-20 16:33:00,43.0,19.0,30.22,WNW,294,1.0,8.0,38,0.00,,,0.00,,2013-04-20 21:33:00,
2013-04-20 16:43:00,43.0,19.0,30.22,WNW,294,1.0,8.0,38,0.00,,,0.00,,2013-04-20 21:43:00,
2013-04-20 16:53:00,44.0,21.0,30.22,ENE,59,2.0,7.0,40,0.00,,,0.00,,2013-04-20 21:53:00,
2013-04-20 17:02:00,45.0,22.0,30.22,West,263,3.0,12.0,40,0.00,,,0.00,,2013-04-20 22:02:00,
2013-04-20 17:12:00,45.0,22.0,30.22,WSW,248,3.0,9.0,39,0.00,,,0.00,,2013-04-20 22:12:00,
2013-04-20 17:22:00,45.0,22.0,30.22,WSW,248,3.0,9.0,39,0.00,,,0.00,,2013-04-20 22:22:00,
2013-04-20 17:32:00,46.0,22.0,30.22,NNE,13,1.0,7.0,38,0.00,,,0.00,,2013-04-20 22:32:00,
2013-04-20 17:42:00,46.0,22.0,30.22,NNE,13,1.0,7.0,38,0.00,,,0.00,,2013-04-20 22:42:00,
2013-04-20 17:53:00,45.0,27.0,30.23,ESE,105,3.0,12.0,48,0.00,,,0.00,,2013-04-20 22:53:00,
2013-04-20 18:02:00,41.0,27.0,30.24,ESE,122,9.0,14.0,58,0.00,,,0.00,,2013-04-20 23:02:00,
2013-04-20 18:11:00,39.0,27.0,30.24,ESE,103,6.0,14.0,62,0.00,,,0.00,,2013-04-20 23:11:00,
2013-04-20 18:22:00,39.0,27.0,30.24,ESE,103,6.0,14.0,62,0.00,,,0.00,,2013-04-20 23:22:00,
2013-04-20 18:32:00,39.0,29.0,30.24,ESE,113,6.0,14.0,66,0.00,,,0.00,,2013-04-20 23:32:00,
2013-04-20 18:42:00,39.0,29.0,30.24,ESE,113,6.0,14.0,66,0.00,,,0.00,,2013-04-20 23:42:00,
2013-04-20 18:53:00,37.0,27.0,30.24,ESE,111,7.0,14.0,66,0.00,,,0.00,,2013-04-20 23:53:00,
2013-04-20 19:01:00,37.0,27.0,30.25,SE,126,7.0,14.0,68,0.00,,,0.00,,2013-04-21 00:01:00,
2013-04-20 19:11:00,37.0,27.0,30.25,SE,126,7.0,14.0,68,0.00,,,0.00,,2013-04-21 00:11:00,
2013-04-20 19:21:00,36.0,27.0,30.26,ESE,115,9.0,12.0,69,0.00,,,0.00,,2013-04-21 00:21:00,
2013-04-20 19:32:00,36.0,26.0,30.27,ESE,118,6.0,13.0,68,0.00,,,0.00,,2013-04-21 00:32:00,
2013-04-20 19:42:00,36.0,26.0,30.27,ESE,118,6.0,13.0,68,0.00,,,0.00,,2013-04-21 00:42:00,
2013-04-20 19:52:00,36.0,26.0,30.27,SE,126,7.0,11.0,68,0.00,,,0.00,,2013-04-21 00:52:00,
2013-04-20 20:01:00,35.0,26.0,30.27,ESE,119,6.0,9.0,69,0.00,,,0.00,,2013-04-21 01:01:00,
2013-04-20 20:11:00,35.0,26.0,30.27,ESE,119,6.0,9.0,69,0.00,,,0.00,,2013-04-21 01:11:00,
2013-04-20 20:21:00,35.0,27.0,30.28,ESE,123,6.0,8.0,71,0.00,,,0.00,,2013-04-21 01:21:00,
2013-04-20 20:31:00,35.0,27.0,30.28,ESE,117,6.0,9.0,73,0.00,,,0.00,,2013-04-21 01:31:00,
2013-04-20 20:42:00,35.0,27.0,30.28,ESE,117,6.0,9.0,73,0.00,,,0.00,,2013-04-21 01:42:00,
2013-04-20 20:52:00,34.0,26.0,30.29,ESE,119,6.0,8.0,72,0.00,,,0.00,,2013-04-21 01:52:00,
2013-04-20 21:01:00,34.0,26.0,30.30,ESE,119,5.0,7.0,73,0.00,,,0.00,,2013-04-21 02:01:00,
2013-04-20 21:11:00,34.0,26.0,30.30,ESE,119,5.0,7.0,73,0.00,,,0.00,,2013-04-21 02:11:00,
2013-04-20 21:21:00,34.0,27.0,30.31,ESE,119,5.0,6.0,74,0.00,,,0.00,,2013-04-21 02:21:00,
2013-04-20 21:32:00,34.0,27.0,30.31,ESE,119,4.0,6.0,75,0.00,,,0.00,,2013-04-21 02:32:00,
2013-04-20 21:41:00,34.0,27.0,30.31,ESE,119,4.0,6.0,75,0.00,,,0.00,,2013-04-21 02:41:00,
2013-04-20 21:52:00,33.0,27.0,30.32,ESE,119,4.0,7.0,77,0.00,,,0.00,,2013-04-21 02:52:00,
2013-04-20 22:01:00,33.0,27.0,30.33,ESE,119,5.0,6.0,77,0.00,,,0.00,,2013-04-21 03:01:00,
2013-04-20 22:11:00,33.0,27.0,30.33,ESE,119,5.0,6.0,77,0.00,,,0.00,,2013-04-21 03:11:00,
2013-04-20 22:21:00,33.0,27.0,30.33,ESE,119,4.0,6.0,78,0.00,,,0.00,,2013-04-21 03:21:00,
2013-04-20 22:32:00,33.0,27.0,30.34,ESE,119,3.0,5.0,79,0.00,,,0.00,,2013-04-21 03:32:00,
2013-04-20 22:42:00,33.0,27.0,30.34,ESE,119,3.0,5.0,79,0.00,,,0.00,,2013-04-21 03:42:00,
2013-04-20 22:52:00,33.0,28.0,30.34,ESE,119,4.0,7.0,80,0.00,,,0.00,,2013-04-21 03:52:00,
2013-04-20 23:02:00,33.0,28.0,30.34,ESE,119,4.0,5.0,80,0.00,,,0.00,,2013-04-21 04:02:00,
2013-04-20 23:12:00,33.0,28.0,30.34,ESE,119,5.0,7.0,81,0.00,,,0.00,,2013-04-21 04:12:00,
2013-04-20 23:22:00,33.0,28.0,30.34,ESE,119,5.0,7.0,81,0.00,,,0.00,,2013-04-21 04:22:00,
2013-04-20 23:33:00,33.0,28.0,30.35,ESE,119,5.0,7.0,81,0.00,,,0.00,,2013-04-21 04:33:00,
2013-04-20 23:42:00,33.0,28.0,30.35,ESE,119,5.0,7.0,81,0.00,,,0.00,,2013-04-21 04:42:00,
2013-04-20 23:53:00,33.0,28.0,30.35,ESE,119,4.0,7.0,81,0.00,,,0.00,,2013-04-21 04:53:00,